DMSP 5D-2 F14 DEB

基本信息
目录编号:
62941
目录名称:
DMSP 5D-2 F14 DEB
国际标识:
1997-012M
轨道中心:
EARTH
物体状态:
在轨
发射日期:
1997-04-04 UTC
轨道信息
数据来源: 国际轨道数据
星历时间: 2026-07-13T11:53:31+0800
半长轴: 7159.025km
偏心率: 0.0034366
轨道倾角: 99.434°
近地点辐角: 36.314°
升交点赤经: 263.013°
平近点角: 324.037°
近地点: 756.285km
远地点: 805.491km
周期: 100.471分钟
每日圈数: 14.3325
详细信息
发射场:
AFWTR
轨道高度:
LEO
数据来源:
AOE Integration Group
参考系:
TEME
时间系统:
UTC
历元类型:
SGP4
2D轨道图
3D轨道图
轨道高度分析图
轨道倾角分析图
轨道综合分析图
查看轨道综合分析图